User: anonymous   Login
Location: Unspecified
(0.0000°N, 0.0000°E)
Time: 23:09:18
(UTC+00:00)
Language:

AUBIESAT-1 - Orbit

View from above orbital plane
View from above orbital plane
View from above satellite
View from above satellite

Ground track
Ground track

The orbit data is extracted from the following two-line orbital elements,

1 37854U 11061E   16204.86726849 +.00001200 +00000-0 +74411-4 0  9993
2 37854 101.7014 265.4749 0172564 328.5498 030.5484 15.02390593257009
Epoch (UTC): 22 July 2016 20:48:51
Eccentricity: 0.0172564
inclination: 101.7014°
perigee height: 440 km
apogee height: 679 km
right ascension of ascending node: 265.4749°
argument of perigee: 328.5498°
revolutions per day: 15.02390593
mean anomaly at epoch: 30.5484°
orbit number at epoch: 25700

The dashed part of the orbit path shows where the satellite is in the earth's shadow,  

DLR